GW2033 Weather Reports


time (UTC)temp
F
wind
direction
speed
knots
gust
knots
rain 1hr
in
rain 24hr
in
rain mn
in
humidity
%
barometer
mb
20260906195123 104 157 0.0 4.3 0.00 0.00 0.00 33 1012.2
20260906194619 102 320 1.7 5.2 0.00 0.00 0.00 34 1012.4
20260906194114 103 162 5.2 10.4 0.00 0.00 0.00 34 1012.5
20260906193609 104 189 2.6 3.5 0.00 0.00 0.00 34 1012.2
20260906193104 102 208 0.9 5.2 0.00 0.00 0.00 35 1012.5
20260906192600 101 280 4.3 7.0 0.00 0.00 0.00 34 1012.7
20260906192059 103 300 4.3 7.0 0.00 0.00 0.00 34 1012.8
20260906191554 102 340 1.7 5.2 0.00 0.00 0.00 34 1012.9
20260906191053 102 208 1.7 6.1 0.00 0.00 0.00 34 1012.9
20260906190553 102 190 0.9 6.1 0.00 0.00 0.00 34 1012.9
20260906190048 101 244 1.7 6.1 0.00 0.00 0.00 35 1012.9
20260906185546 102 219 2.6 5.2 0.00 0.00 0.00 35 1012.9
20260906185045 102 65 0.9 7.0 0.00 0.00 0.00 35 1013.2
20260906184541 102 217 7.0 7.0 0.00 0.00 0.00 34 1013.2
20260906184036 102 222 4.3 6.1 0.00 0.00 0.00 34 1013.3
20260906183532 101 294 3.5 6.1 0.00 0.00 0.00 36 1013.3
20260906183028 99 18 2.6 4.3 0.00 0.00 0.00 37 1013.6
20260906182523 102 183 1.7 3.5 0.00 0.00 0.00 35 1013.5
20260906182019 101 251 3.5 4.3 0.00 0.00 0.00 36 1013.6
20260906181514 101 148 0.0 4.3 0.00 0.00 0.00 36 1013.7
20260906181010 100 325 2.6 5.2 0.00 0.00 0.00 37 1013.6
20260906180504 100 178 1.7 6.1 0.00 0.00 0.00 36 1013.8
20260906180003 100 161 4.3 7.0 0.00 0.00 0.00 37 1014.3
20260906175457 98 131 1.7 5.2 0.00 0.00 0.00 38 1014.5
20260906174956 100 176 1.7 5.2 0.00 0.00 0.00 37 1014.3
20260906174455 101 284 2.6 6.1 0.00 0.00 0.00 37 1014.5
20260906173950 100 256 0.9 4.3 0.00 0.00 0.00 37 1014.7
20260906173446 99 201 0.0 3.5 0.00 0.00 0.00 38 1014.7
20260906172945 97 230 0.0 2.6 0.00 0.00 0.00 40 1014.8
20260906172442 97 272 0.9 3.5 0.00 0.00 0.00 40 1014.8
20260906171936 98 0 1.7 6.1 0.00 0.00 0.00 39 1015.0
20260906171431 98 168 0.9 5.2 0.00 0.00 0.00 39 1015.1
20260906170927 100 241 1.7 5.2 0.00 0.00 0.00 37 1015.2
20260906170423 100 273 1.7 6.1 0.00 0.00 0.00 38 1014.8
20260906165920 100 228 0.9 3.5 0.00 0.00 0.00 38 1015.2
20260906165419 99 181 2.6 4.3 0.00 0.00 0.00 39 1015.2
20260906164914 98 164 0.0 1.7 0.00 0.00 0.00 40 1015.2
20260906164412 95 253 0.0 4.3 0.00 0.00 0.00 42 1015.2
20260906163909 95 358 1.7 5.2 0.00 0.00 0.00 42 1015.3
20260906163405 97 263 2.6 4.3 0.00 0.00 0.00 41 1015.4
20260906162903 96 299 1.7 4.3 0.00 0.00 0.00 42 1015.3
20260906162401 96 343 0.9 3.5 0.00 0.00 0.00 42 1015.4
20260906161857 97 228 0.0 5.2 0.00 0.00 0.00 41 1015.2
20260906161356 98 268 4.3 5.2 0.00 0.00 0.00 40 1015.2
20260906160855 97 221 2.6 4.3 0.00 0.00 0.00 41 1015.2
20260906160349 98 116 0.9 3.5 0.00 0.00 0.00 40 1015.2
20260906155847 99 175 0.9 3.5 0.00 0.00 0.00 40 1015.3
20260906155341 97 166 2.6 3.5 0.00 0.00 0.00 41 1015.2
20260906154838 96 238 0.9 2.6 0.00 0.00 0.00 43 1015.2
20260906154332 96 286 0.9 1.7 0.00 0.00 0.00 42 1015.2
20260906153831 95 225 1.7 4.3 0.00 0.00 0.00 43 1015.2
20260906153330 95 164 0.0 2.6 0.00 0.00 0.00 44 1015.2
20260906152825 95 284 2.6 3.5 0.00 0.00 0.00 44 1015.2
20260906152320 94 299 4.3 6.1 0.00 0.00 0.00 45 1015.2
20260906151819 93 310 2.6 5.2 0.00 0.00 0.00 46 1015.2
20260906151315 93 239 0.0 4.3 0.00 0.00 0.00 46 1015.1
20260906150811 93 105 0.0 2.6 0.00 0.00 0.00 46 1015.1
20260906150306 93 265 0.0 2.6 0.00 0.00 0.00 46 1014.9
20260906145805 93 341 1.7 2.6 0.00 0.00 0.00 46 1015.0
20260906145306 93 279 2.6 4.3 0.00 0.00 0.00 45 1014.8
20260906144759 93 172 0.0 1.7 0.00 0.00 0.00 47 1015.1
20260906144254 92 174 0.0 1.7 0.00 0.00 0.00 47 1015.2
20260906143753 92 203 1.7 2.6 0.00 0.00 0.00 47 1015.0
20260906143251 92 289 0.9 1.7 0.00 0.00 0.00 48 1015.0
20260906142750 92 229 0.0 1.7 0.00 0.00 0.00 49 1015.0
20260906142245 91 202 0.0 1.7 0.00 0.00 0.00 50 1014.8
20260906141744 89 230 0.0 2.6 0.00 0.00 0.00 52 1014.8
20260906141239 89 205 0.9 2.6 0.00 0.00 0.00 52 1014.7
20260906140738 88 194 2.6 2.6 0.00 0.00 0.00 53 1015.1
20260906140233 87 169 2.6 2.6 0.00 0.00 0.00 55 1014.9
20260906135730 87 174 1.7 2.6 0.00 0.00 0.00 57 1014.9
20260906135226 87 165 0.9 1.7 0.00 0.00 0.00 56 1014.8
20260906134721 85 130 0.0 2.6 0.00 0.00 0.00 59 1014.9
20260906134217 84 165 0.0 1.7 0.00 0.00 0.00 61 1014.9
20260906133713 83 127 0.0 0.9 0.00 0.00 0.00 62 1014.8
20260906133208 82 7 0.0 0.0 0.00 0.00 0.00 63 1014.7
20260906132703 81 326 0.0 0.9 0.00 0.00 0.00 66 1014.7
20260906132158 80 352 0.0 0.9 0.00 0.00 0.00 69 1014.6
20260906131654 79 235 0.0 1.7 0.00 0.00 0.00 70 1014.5
20260906131149 78 225 0.0 0.9 0.00 0.00 0.00 71 1014.5
20260906130644 78 50 0.0 0.0 0.00 0.00 0.00 71 1014.7
20260906130139 78 50 0.0 0.0 0.00 0.00 0.00 72 1014.5
20260906125637 78 357 0.9 1.7 0.00 0.00 0.00 72 1014.3
20260906125136 77 129 0.0 0.0 0.00 0.00 0.00 74 1014.5
20260906124631 77 113 0.0 0.0 0.00 0.00 0.00 74 1014.2
20260906124127 77 116 0.0 0.9 0.00 0.00 0.00 74 1013.9
20260906123626 77 37 0.0 0.9 0.00 0.00 0.00 74 1013.9
20260906123121 76 50 0.0 0.9 0.00 0.00 0.00 75 1013.9
20260906122620 75 100 0.0 1.7 0.00 0.00 0.00 75 1013.6
20260906122116 75 336 0.0 0.0 0.00 0.00 0.00 76 1013.6
20260906121612 75 230 0.0 0.0 0.00 0.00 0.00 76 1013.7
20260906121108 75 230 0.0 0.0 0.00 0.00 0.00 76 1013.7
20260906120603 75 230 0.0 0.0 0.00 0.00 0.00 76 1013.7
20260906120101 75 230 0.0 0.0 0.00 0.00 0.00 76 1013.6
20260906115600 75 230 0.0 0.0 0.00 0.00 0.00 75 1013.4
20260906115056 75 230 0.0 0.9 0.00 0.00 0.00 75 1013.4
20260906114550 75 55 0.0 0.0 0.00 0.00 0.00 75 1013.3
20260906114045 75 142 0.0 0.0 0.00 0.00 0.00 75 1013.3
20260906113544 75 173 0.0 0.0 0.00 0.00 0.00 75 1013.4
20260906113040 75 129 0.0 0.9 0.00 0.00 0.00 74 1013.2
20260906112534 76 184 0.0 0.9 0.00 0.00 0.00 74 1013.2
20260906112031 76 309 0.0 0.9 0.00 0.00 0.00 74 1013.2
20260906111530 76 164 0.0 0.0 0.00 0.00 0.00 74 1013.1
20260906111025 76 142 0.0 0.9 0.00 0.00 0.00 74 1013.0
20260906110520 76 89 0.0 0.0 0.00 0.00 0.00 74 1013.1
20260906110019 76 89 0.0 0.0 0.00 0.00 0.00 73 1013.0
20260906105514 76 129 0.0 0.9 0.00 0.00 0.00 73 1012.9
20260906105010 76 75 0.0 0.9 0.00 0.00 0.00 72 1013.0
20260906104509 76 154 0.0 0.9 0.00 0.00 0.00 72 1013.0
20260906104003 76 96 0.0 0.9 0.00 0.00 0.00 72 1013.1
20260906103501 77 142 0.0 0.9 0.00 0.00 0.00 71 1012.9
20260906102956 77 129 0.0 0.9 0.00 0.00 0.00 71 1012.9
20260906102457 77 103 0.9 1.7 0.00 0.00 0.00 71 1013.1
20260906101951 77 142 0.0 0.9 0.00 0.00 0.00 71 1013.0
20260906101446 77 351 0.0 0.0 0.00 0.00 0.00 71 1013.0
20260906100947 77 37 0.0 0.9 0.00 0.00 0.00 71 1013.0
20260906100442 77 351 0.0 1.7 0.00 0.00 0.00 71 1013.1
20260906095936 77 130 0.0 0.0 0.00 0.00 0.00 71 1013.0
20260906095431 77 130 0.0 0.0 0.00 0.00 0.00 71 1013.1
20260906094926 77 130 0.0 0.9 0.00 0.00 0.00 70 1013.0
20260906094421 77 321 0.0 0.0 0.00 0.00 0.00 70 1013.2
20260906093917 77 164 0.0 0.9 0.00 0.00 0.00 70 1013.0
20260906093413 78 49 0.0 0.0 0.00 0.00 0.00 69 1013.0
20260906092912 78 37 0.0 0.9 0.00 0.00 0.00 69 1013.0
20260906092407 78 44 0.0 0.9 0.00 0.00 0.00 68 1013.1
20260906091902 78 315 0.0 0.9 0.00 0.00 0.00 68 1013.1
20260906091358 78 142 0.0 0.9 0.00 0.00 0.00 69 1012.9
20260906090855 78 172 0.0 0.9 0.00 0.00 0.00 68 1012.9
20260906090354 78 195 0.0 0.9 0.00 0.00 0.00 68 1012.9
20260906085848 78 15 0.0 0.0 0.00 0.00 0.00 68 1012.9
20260906085348 79 15 0.0 0.0 0.00 0.00 0.00 67 1012.9
20260906084842 79 15 0.0 0.0 0.00 0.00 0.00 66 1012.9
20260906084342 79 15 0.0 0.9 0.00 0.00 0.00 66 1012.9
20260906083831 79 129 0.0 0.0 0.00 0.00 0.00 65 1012.9
20260906083326 80 22 0.0 0.9 0.00 0.00 0.00 65 1012.7
20260906082820 80 15 0.0 0.9 0.00 0.00 0.00 64 1012.8
20260906082315 80 165 0.0 0.0 0.00 0.00 0.00 63 1012.8
20260906081811 81 165 0.0 0.0 0.00 0.00 0.00 62 1012.8
20260906081307 81 165 0.0 0.0 0.00 0.00 0.00 61 1012.9
20260906080803 82 174 0.9 1.7 0.00 0.00 0.00 61 1012.8
20260906080259 81 166 0.9 0.9 0.00 0.00 0.00 61 1012.7
20260906075759 81 263 0.0 0.9 0.00 0.00 0.00 62 1012.8
20260906075258 81 217 0.0 0.9 0.00 0.00 0.00 62 1012.9
20260906074754 81 242 0.0 0.0 0.00 0.00 0.00 62 1012.7
20260906074253 81 242 0.0 0.9 0.00 0.00 0.00 61 1012.7
20260906073753 81 282 0.0 1.7 0.00 0.00 0.00 61 1012.5
20260906073248 81 326 0.0 0.9 0.00 0.00 0.00 61 1012.6
20260906072744 82 164 0.0 1.7 0.00 0.00 0.00 60 1012.7
20260906072239 81 154 0.0 0.9 0.00 0.00 0.00 61 1012.6
20260906071735 81 195 0.0 0.9 0.00 0.00 0.00 61 1012.6
20260906071235 81 75 0.0 0.9 0.00 0.00 0.00 61 1012.6
20260906070732 82 224 0.0 0.0 0.00 0.00 0.00 61 1012.7
20260906070227 82 234 1.7 2.6 0.00 0.00 0.00 60 1012.4
20260906065726 82 150 0.0 1.7 0.00 0.00 0.00 59 1012.6
20260906065222 83 226 0.9 1.7 0.00 0.00 0.00 59 1012.6
20260906064717 83 218 0.0 1.7 0.00 0.00 0.00 57 1012.7
20260906064213 84 232 0.0 2.6 0.00 0.00 0.00 57 1012.5
20260906063708 84 248 0.0 3.5 0.00 0.00 0.00 56 1012.5
20260906063203 84 150 0.9 3.5 0.00 0.00 0.00 56 1012.6
20260906062659 84 138 0.9 1.7 0.00 0.00 0.00 57 1012.6
20260906062158 84 179 0.9 3.5 0.00 0.00 0.00 57 1012.5
20260906061654 83 80 0.0 3.5 0.00 0.00 0.00 58 1012.8
20260906061149 83 62 0.0 1.7 0.00 0.00 0.00 58 1012.7
20260906060645 83 327 0.0 3.5 0.00 0.00 0.00 58 1012.7
20260906060142 84 322 0.0 1.7 0.00 0.00 0.00 58 1012.5
20260906055638 84 137 0.9 1.7 0.00 0.00 0.00 57 1012.7
20260906055133 84 209 0.0 6.1 0.00 0.00 0.00 57 1012.7
20260906054628 84 311 0.9 1.7 0.00 0.00 0.00 57 1012.8
20260906054123 84 180 1.7 1.7 0.00 0.00 0.00 57 1012.7
20260906053619 84 162 0.9 1.7 0.00 0.00 0.00 57 1012.9
20260906053114 84 154 0.0 0.9 0.00 0.00 0.00 57 1012.7
20260906052610 84 235 0.0 2.6 0.00 0.00 0.00 57 1012.9
20260906052107 84 22 0.0 1.7 0.00 0.00 0.00 57 1012.8
20260906051602 84 269 0.0 1.7 0.00 0.00 0.00 57 1012.7
20260906051057 84 25 0.0 1.7 0.00 0.00 0.00 57 1012.8
20260906050552 84 129 0.0 0.0 0.00 0.00 0.00 56 1012.6
20260906050048 85 129 0.0 3.5 0.00 0.00 0.00 55 1012.6
20260906045545 85 104 0.0 1.7 0.00 0.00 0.00 55 1012.6
20260906045042 86 131 0.0 1.7 0.00 0.00 0.00 54 1012.7
20260906044537 86 180 0.0 2.6 0.00 0.00 0.00 53 1012.8
20260906044032 86 96 0.0 4.3 0.00 0.00 0.00 53 1012.7
20260906043528 86 234 0.0 2.6 0.00 0.00 0.00 53 1012.7
20260906043024 86 162 0.0 1.7 0.00 0.00 0.00 53 1012.6
20260906042522 86 160 0.0 2.6 0.00 0.00 0.00 53 1012.7
20260906042017 87 218 0.0 2.6 0.00 0.00 0.00 53 1012.6
20260906041514 87 146 1.7 2.6 0.00 0.00 0.00 53 1012.7
20260906041013 87 167 1.7 2.6 0.00 0.00 0.00 52 1012.9
20260906040509 87 136 1.7 2.6 0.00 0.00 0.00 52 1012.7
20260906040004 87 180 0.9 3.5 0.00 0.00 0.00 51 1012.5
20260906035459 88 173 0.9 2.6 0.00 0.00 0.00 51 1012.7
20260906034955 87 170 0.9 4.3 0.00 0.00 0.00 51 1012.5
20260906034454 87 166 0.9 3.5 0.00 0.00 0.00 52 1012.2
20260906033949 87 209 0.9 1.7 0.00 0.00 0.00 52 1012.6
20260906033444 88 176 0.9 4.3 0.00 0.00 0.00 51 1012.4
20260906032940 88 152 1.7 3.5 0.00 0.00 0.00 51 1012.4
20260906032436 88 180 0.0 2.6 0.00 0.00 0.00 51 1012.5
20260906031930 88 141 2.6 4.3 0.00 0.00 0.00 50 1012.4
20260906031426 89 153 1.7 4.3 0.00 0.00 0.00 50 1012.5
20260906030921 89 196 0.0 5.2 0.00 0.00 0.00 50 1012.5
20260906030416 89 191 0.9 4.3 0.00 0.00 0.00 50 1012.5
20260906025910 89 147 0.0 2.6 0.00 0.00 0.00 49 1012.4
20260906025405 89 182 0.9 1.7 0.00 0.00 0.00 49 1012.2
20260906024904 89 178 0.9 3.5 0.00 0.00 0.00 49 1012.3
20260906024403 89 173 0.0 4.3 0.00 0.00 0.00 49 1012.3
20260906023858 89 176 1.7 2.6 0.00 0.00 0.00 49 1012.2
20260906023354 89 170 1.7 2.6 0.00 0.00 0.00 49 1011.9
20260906022848 90 199 0.0 2.6 0.00 0.00 0.00 49 1012.1
20260906022344 90 175 0.9 2.6 0.00 0.00 0.00 48 1012.0
20260906021840 90 146 0.0 1.7 0.00 0.00 0.00 48 1011.8
20260906021338 90 155 1.7 5.2 0.00 0.00 0.00 48 1011.8
20260906020834 90 190 0.9 3.5 0.00 0.00 0.00 48 1011.4
20260906020333 90 168 1.7 2.6 0.00 0.00 0.00 48 1011.4
20260906015828 90 148 0.9 0.9 0.00 0.00 0.00 48 1011.7
20260906015327 91 219 0.0 2.6 0.00 0.00 0.00 47 1011.7
20260906014826 91 164 0.0 1.7 0.00 0.00 0.00 47 1011.6
20260906014322 91 154 0.0 1.7 0.00 0.00 0.00 46 1011.7
20260906013818 92 173 0.9 2.6 0.00 0.00 0.00 46 1011.3
20260906013313 92 159 2.6 3.5 0.00 0.00 0.00 46 1011.2
20260906012809 92 189 2.6 3.5 0.00 0.00 0.00 45 1011.0
20260906012308 92 180 0.0 1.7 0.00 0.00 0.00 45 1011.2
20260906011803 92 172 0.0 1.7 0.00 0.00 0.00 45 1011.2
20260906011258 92 146 0.0 2.6 0.00 0.00 0.00 44 1011.0
20260906010754 93 181 0.9 2.6 0.00 0.00 0.00 44 1011.0
20260906010250 93 183 0.9 1.7 0.00 0.00 0.00 44 1011.1
20260906005744 93 186 0.0 1.7 0.00 0.00 0.00 44 1011.0
20260906005238 93 173 0.0 1.7 0.00 0.00 0.00 43 1010.9
20260906004737 94 182 0.9 4.3 0.00 0.00 0.00 43 1010.8
20260906004233 94 185 3.5 4.3 0.00 0.00 0.00 42 1010.8
20260906003733 94 167 2.6 3.5 0.00 0.00 0.00 42 1010.7
20260906003228 95 178 0.0 3.5 0.00 0.00 0.00 41 1010.7
20260906002723 95 170 1.7 5.2 0.00 0.00 0.00 41 1010.7
20260906002218 95 170 0.9 4.3 0.00 0.00 0.00 40 1010.7
20260906001713 95 149 1.7 5.2 0.00 0.00 0.00 40 1010.8
20260906001213 96 186 0.0 4.3 0.00 0.00 0.00 40 1010.9
20260906000709 96 249 0.9 5.2 0.00 0.00 0.00 39 1010.9
20260906000204 96 160 0.9 4.3 0.00 0.00 0.00 40 1010.9
20260905235703 96 171 1.7 4.3 0.00 0.00 0.00 39 1011.0
20260905235158 97 174 1.7 4.3 0.00 0.00 0.00 38 1010.9
20260905234653 97 171 2.6 2.6 0.00 0.00 0.00 37 1010.9
20260905234149 97 128 0.9 2.6 0.00 0.00 0.00 37 1011.0
20260905233644 97 148 4.3 6.1 0.00 0.00 0.00 37 1011.1
20260905233143 97 212 1.7 4.3 0.00 0.00 0.00 36 1011.1
20260905232638 98 160 1.7 5.2 0.00 0.00 0.00 35 1011.2
20260905232134 98 195 1.7 6.1 0.00 0.00 0.00 35 1010.9
20260905231629 99 257 0.0 1.7 0.00 0.00 0.00 36 1010.9
20260905231125 99 176 0.9 9.6 0.00 0.00 0.00 35 1011.0
20260905230621 99 169 3.5 7.0 0.00 0.00 0.00 36 1011.0
20260905230118 99 145 2.6 7.0 0.00 0.00 0.00 36 1010.9
20260905225612 99 212 1.7 9.6 0.00 0.00 0.00 36 1010.9
20260905225107 100 152 2.6 7.0 0.00 0.00 0.00 36 1010.9
20260905224602 100 150 2.6 6.1 0.00 0.00 0.00 36 1010.8
20260905224101 100 164 4.3 8.7 0.00 0.00 0.00 36 1010.8
20260905223559 100 160 1.7 8.7 0.00 0.00 0.00 36 1011.0
20260905223055 101 201 2.6 7.8 0.00 0.00 0.00 36 1010.8
20260905222554 101 175 3.5 8.7 0.00 0.00 0.00 35 1011.0
20260905222050 100 140 1.7 5.2 0.00 0.00 0.00 36 1010.9
20260905221546 101 215 2.6 9.6 0.00 0.00 0.00 36 1010.8
20260905221042 102 187 1.7 3.5 0.00 0.00 0.00 35 1011.0
20260905220537 101 213 1.7 11.3 0.00 0.00 0.00 35 1010.7
20260905220033 101 223 3.5 7.8 0.00 0.00 0.00 35 1010.9
20260905215532 102 193 1.7 7.8 0.00 0.00 0.00 35 1010.8
20260905215029 102 160 1.7 11.3 0.00 0.00 0.00 35 1010.9
20260905214525 102 210 1.7 8.7 0.00 0.00 0.00 35 1010.9
20260905214020 102 186 1.7 8.7 0.00 0.00 0.00 35 1010.7
20260905213515 102 240 1.7 7.0 0.00 0.00 0.00 35 1010.8
20260905213010 102 180 4.3 10.4 0.00 0.00 0.00 35 1011.1
20260905212505 102 181 2.6 8.7 0.00 0.00 0.00 35 1010.9
20260905212004 103 180 0.9 4.3 0.00 0.00 0.00 33 1010.8
20260905211500 102 170 3.5 9.6 0.00 0.00 0.00 34 1010.9
20260905210955 102 218 9.6 13.9 0.00 0.00 0.00 34 1011.0
20260905210451 103 158 2.6 8.7 0.00 0.00 0.00 34 1011.0
20260905205950 102 178 0.9 4.3 0.00 0.00 0.00 35 1011.4
20260905205445 102 172 2.6 7.8 0.00 0.00 0.00 35 1011.4
20260905204944 102 208 3.5 6.1 0.00 0.00 0.00 35 1011.6
20260905204440 103 223 11.3 14.8 0.00 0.00 0.00 33 1011.3
20260905203938 102 159 3.5 11.3 0.00 0.00 0.00 36 1011.7
20260905203435 102 199 1.7 6.1 0.00 0.00 0.00 36 1011.7
20260905202930 101 188 1.7 9.6 0.00 0.00 0.00 38 1011.7
20260905202425 102 202 4.3 11.3 0.00 0.00 0.00 37 1011.9
20260905201920 102 172 3.5 12.2 0.00 0.00 0.00 37 1012.1
20260905201415 102 149 2.6 11.3 0.00 0.00 0.00 37 1012.0
20260905200910 102 171 1.7 9.6 0.00 0.00 0.00 37 1012.0
20260905200406 102 178 2.6 7.8 0.00 0.00 0.00 37 1012.0
20260905195903 102 205 1.7 10.4 0.00 0.00 0.00 37 1012.2